Simultaneous Nadir Overpasses (SNOs) Predictions

Prediction of SNOs between METOP-A and NOAA-19 Satellite Orbit:

Table of predicted SNOs for the next 14.0 days since TLE Epoch: 3/23/2018
Index Date (METOP-A) Time (METOP-A) Lat,Lon (METOP-A) SZA (METOP-A ) Date (NOAA-19) Time (NOAA-19) Lat,Lon (NOAA-19) SZA (NOAA-19 ) Distance(km) Time Diff (sec)
1 03/27/2018 04:29:47 78.32, 120.41 75.76 03/27/2018 04:28:48 78.30, 120.27 75.74 3.35 59
2 03/27/2018 05:20:29 -78.29, -72.38 104.28 03/27/2018 05:19:43 -78.30, -72.41 104.28 0.75 46
3 03/27/2018 06:11:09 78.30, 94.96 75.71 03/27/2018 06:10:49 78.29, 94.83 75.71 2.91 20
4 03/27/2018 07:01:51 -78.27, -97.84 104.33 03/27/2018 07:01:44 -78.29, -97.86 104.32 1.69 7
5 03/27/2018 07:52:31 78.28, 69.50 75.66 03/27/2018 07:52:50 78.29, 69.38 75.67 3.00 19
6 03/27/2018 08:43:13 -78.25,-123.29 104.38 03/27/2018 08:43:45 -78.28,-123.31 104.35 2.90 32
7 03/27/2018 09:33:53 78.25, 44.05 75.61 03/27/2018 09:34:50 78.24, 44.16 75.60 3.02 57
8 03/27/2018 10:24:35 -78.23,-148.74 104.43 03/27/2018 10:25:46 -78.27,-148.76 104.39 4.15 71




NCC Satellite Simultaneous Nadir Overpasses (SNOs) Prediction Service
